Satellite-Ground Cal/Val Site Overpasses Predictions

Prediction of Satellite NPP Overpassing Cal/Val Site: Antarctic Dome C

Ground Cal/Val Site Location: Latitude: -75.10, Longitude: 123.35; Satellite-Ground Site NADIR distance within 100 km.

Table of predicted overpasses for the next 14.0 days since TLE Epoch: 11/2/2018
Interval Starting Time Ending Time Minimum Distance Time Minimum Distance (km)
1 11/03/2018 07:19:24 11/03/2018 07:19:44 11/03/2018 07:19:34 71.60
2 11/05/2018 15:01:39 11/05/2018 15:02:03 11/05/2018 15:01:51 57.32
3 11/06/2018 14:42:49 11/06/2018 14:43:14 11/06/2018 14:43:01 51.90
4 11/07/2018 07:44:31 11/07/2018 07:44:50 11/07/2018 07:44:41 73.89
5 11/08/2018 07:25:37 11/08/2018 07:26:05 11/08/2018 07:25:51 33.93
6 11/10/2018 15:08:04 11/10/2018 15:08:12 11/10/2018 15:08:08 95.35
7 11/11/2018 14:49:04 11/11/2018 14:49:33 11/11/2018 14:49:19 16.02
8 11/13/2018 07:31:54 11/13/2018 07:32:23 11/13/2018 07:32:08 3.58


NCC Satellite Cal/Val Overpasses Prediction Service
